[[{"header":{"parameterUnit":"m.s-1","parameterCategory":1,"la1":30.2991,"la2":30.254,"lo1":-89.0895,"lo2":-89.0444,"dy":0.0017,"dx":0.0017,"nx":28,"ny":28,"refTime":"2025-02-03T09:00:00:Z","depth":0,"parameterNumber":2,"parameterNumberName":"U-component_of_WINDS"},"data":[0,0,0,0,0,0,0,0,0,0,0,0,0,0,0,0,0,0,0,0,0,0,0,0,0,0,0,0,0,0,0,0,0,0,0,0,0,0,0,0,0,0,0,0,0,0,0,0,0,0,0,0,0,0,0,0,0,0,0.1022,0.1022,0,0.105,0.105,0.105,0.1065,0.1065,0.1065,0.1065,0.1093,0.1094,0.1094,0,0,0,0,0,0,0,0,0,0,0,0,0,0.0982,0.0983,0.1022,0.1023,0.1023,0.105,0.105,0.105,0.1065,0.1065,0.1065,0.1065,0.1093,0.1094,0.1094,0,0,0,0,0,0,0,0,0,0,0,0,0,0.1004,0.0983,0.1022,0.1033,0.1035,0.1049,0.105,0.105,0.1065,0.1065,0.1065,0.1065,0.1092,0.1093,0.1095,0.11,0,0,0.1098,0.1098,0,0,0,0,0,0,0,0,0.1002,0.1005,0.1031,0.1033,0.1034,0.1054,0.1046,0.1067,0.1065,0.1053,0.1065,0.1065,0.108,0.1082,0.1087,0.1101,0.1103,0.1098,0.1099,0.1099,0.1099,0,0,0,0,0,0,0,0.1001,0.1004,0.1033,0.1032,0.1033,0.1037,0.104,0.105,0.1066,0.1054,0.1056,0.1059,0.1081,0.1086,0.1088,0.1103,0.1098,0.1099,0.1099,0.11,0.1123,0.1123,0,0,0,0,0,0,0.0998,0.1003,0.1032,0.1034,0.1018,0.1038,0.1041,0.1048,0.1066,0.1069,0.1059,0.1059,0.1084,0.1087,0.1089,0.1097,0.1099,0.11,0.1101,0.1123,0.1123,0.1123,0,0,0,0,0,0,0.0997,0.1,0.1031,0.1019,0.1023,0.1038,0.1045,0.1048,0.1053,0.1069,0.1072,0.1061,0.1084,0.1087,0.1097,0.1098,0.11,0.1101,0.1123,0.1123,0.1123,0.1112,0,0,0,0,0,0,0.0995,0.1,0.1002,0.1018,0.1023,0.1039,0.1045,0.1049,0.1055,0.1056,0.1072,0.1075,0.1085,0.1096,0.1098,0.1099,0.1102,0.1123,0.1123,0.1123,0.1113,0.1112,0.1111,0,0,0,0,0,0.0994,0.0998,0.1002,0.1005,0.1027,0.1039,0.1042,0.1053,0.1055,0.1058,0.1068,0.1074,0.1097,0.1096,0.11,0.1101,0.1123,0.1123,0.1123,0.1113,0.1112,0.1111,0,0,0,0,0,0,0.0981,0.1,0.1005,0.1014,0.1025,0.1041,0.1045,0.1051,0.1062,0.1062,0.1075,0.1079,0.1087,0.1095,0.1094,0.1107,0.1111,0.1112,0.1102,0.1101,0.11,0.1098,0.1103,0,0,0,0,0,0.0979,0.0987,0.1004,0.101,0.1015,0.1029,0.1035,0.1043,0.1054,0.1059,0.1069,0.108,0.109,0.1096,0.1106,0.1114,0.1117,0.1116,0.1115,0.1115,0.1115,0.112,0.112,0.1123,0.1123,0.1123,0,0,0.0975,0.0987,0.0991,0.1008,0.1017,0.1025,0.1033,0.1041,0.1048,0.106,0.107,0.1078,0.1091,0.11,0.1105,0.1107,0.1115,0.1115,0.1114,0.1115,0.112,0.1119,0.1119,0.1123,0.1123,0.1123,0,0,0.0972,0.0982,0.0989,0.0998,0.1011,0.1021,0.1022,0.1038,0.1044,0.1054,0.1063,0.1071,0.1087,0.1096,0.1103,0.1104,0.111,0.1107,0.1103,0.1107,0.1107,0.1107,0.1107,0.1107,0.1107,0.1107,0.1107,0,0.0966,0.0979,0.0991,0.0999,0.1006,0.1018,0.1024,0.1033,0.1049,0.1053,0.1056,0.1076,0.1086,0.1097,0.1097,0.1102,0.1104,0.1105,0.1106,0.1106,0.1106,0.1106,0.1106,0.1106,0.1106,0.1106,0.1106,0,0.097,0.0979,0.0983,0.0999,0.1006,0.1013,0.1026,0.1032,0.1039,0.1048,0.1059,0.107,0.1083,0.1086,0.1093,0.1098,0.1099,0.1103,0.1107,0.1105,0.1105,0.1106,0.1105,0.1106,0.1106,0.1106,0,0,0.096,0.0982,0.0983,0.0991,0.1007,0.1014,0.1022,0.1034,0.1039,0.105,0.1057,0.107,0.1074,0.1082,0.109,0.1094,0.1094,0.1098,0.1098,0.1096,0.11,0.1096,0.1096,0.1098,0.1098,0.1098,0.1099,0,0.096,0.0975,0.0986,0.0996,0.1005,0.1016,0.1023,0.1033,0.1042,0.105,0.1059,0.1069,0.1074,0.1078,0.1083,0.1093,0.1094,0.1093,0.1104,0.1105,0.1101,0.1097,0.1093,0.1093,0.1099,0.1099,0.1099,0,0.0961,0.0972,0.0983,0.0999,0.1003,0.1009,0.1021,0.1029,0.1041,0.1047,0.1055,0.1063,0.1072,0.1075,0.1087,0.1086,0.1091,0.1097,0.1097,0.1098,0.1102,0.1098,0.1094,0.1094,0.11,0.11,0.11,0,0.0952,0.097,0.0979,0.0985,0.1003,0.1007,0.1014,0.1027,0.1033,0.1044,0.1048,0.106,0.1066,0.1074,0.1085,0.1086,0.1096,0.11,0.1101,0.1101,0.1103,0.1102,0.1099,0.1106,0.1106,0.1106,0.1106,0,0.0951,0.0957,0.0975,0.0981,0.0988,0.1001,0.1008,0.1017,0.1028,0.1035,0.1045,0.1052,0.1066,0.1074,0.1083,0.1091,0.1094,0.1099,0.1101,0.1098,0.1097,0.1102,0.1102,0.1106,0.1106,0.1106,0.1106,0,0.0942,0.0954,0.0965,0.0981,0.0986,0.0991,0.1005,0.101,0.102,0.1029,0.1032,0.1046,0.1056,0.1068,0.1082,0.1088,0.1096,0.1099,0.1092,0.1093,0.1093,0.1093,0.1092,0.1093,0.11,0.11,0.11,0,0.094,0.0945,0.0963,0.0969,0.0976,0.0985,0.0992,0.1005,0.1012,0.1026,0.103,0.1041,0.1051,0.1066,0.1078,0.1089,0.1092,0.1091,0.1094,0.1091,0.1092,0.1092,0.1092,0.1091,0.109,0.109,0.109,0,0.0935,0.0941,0.0951,0.0963,0.0971,0.0981,0.0991,0.0995,0.101,0.1017,0.1028,0.1035,0.105,0.1061,0.1073,0.1081,0.1088,0.1089,0.109,0.1087,0.1082,0.1085,0.109,0.1089,0.1089,0.1089,0.1089,0.1089,0.093,0.0935,0.0948,0.0959,0.0968,0.0978,0.0984,0.0994,0.1003,0.1016,0.1023,0.1034,0.1046,0.1063,0.1071,0.1079,0.1081,0.1082,0.1083,0.1083,0.1082,0.1081,0.1081,0.1081,0.1081,0.1081,0.1081,0,0.0926,0.0935,0.0944,0.0959,0.0967,0.0973,0.0985,0.0992,0.1001,0.1012,0.1021,0.1033,0.1044,0.1056,0.1068,0.1072,0.1075,0.1074,0.1074,0.1076,0.1079,0.1077,0.1071,0.1071,0.1071,0.1071,0.1071,0.1071,0.0924,0.0934,0.0941,0.0955,0.0964,0.0975,0.0981,0.099,0.0999,0.1012,0.1021,0.1029,0.104,0.1053,0.1063,0.1066,0.107,0.1068,0.1072,0.1075,0.1075,0.1076,0.1075,0.1068,0.1068,0.1068,0.1068,0.1068]},{"header":{"parameterUnit":"m.s-1","parameterCategory":1,"la1":30.2991,"la2":30.254,"lo1":-89.0895,"lo2":-89.0444,"dy":0.0017,"dx":0.0017,"nx":28,"ny":28,"refTime":"2025-02-03T09:00:00:Z","depth":0,"parameterNumber":3,"parameterNumberName":"V-component_of_WINDS"},"data":[0,0,0,0,0,0,0,0,0,0,0,0,0,0,0,0,0,0,0,0,0,0,0,0,0,0,0,0,0,0,0,0,0,0,0,0,0,0,0,0,0,0,0,0,0,0,0,0,0,0,0,0,0,0,0,0,0,0,1.6907,1.6907,0,1.6876,1.6876,1.6876,1.6886,1.6886,1.6887,1.6888,1.6852,1.6851,1.6849,0,0,0,0,0,0,0,0,0,0,0,0,0,1.6972,1.697,1.6907,1.6907,1.6906,1.6876,1.6876,1.6875,1.6885,1.6886,1.6887,1.6888,1.6853,1.6851,1.6849,0,0,0,0,0,0,0,0,0,0,0,0,0,1.6942,1.697,1.6907,1.6908,1.6908,1.6876,1.6876,1.6875,1.6885,1.6886,1.6887,1.6888,1.6853,1.6851,1.6849,1.6814,0,0,1.6841,1.684,0,0,0,0,0,0,0,0,1.6944,1.694,1.6908,1.6908,1.6907,1.6886,1.6886,1.6855,1.6885,1.6894,1.6888,1.6889,1.6862,1.6859,1.6851,1.6812,1.6811,1.6841,1.684,1.6839,1.6838,0,0,0,0,0,0,0,1.6946,1.6941,1.6895,1.6908,1.6907,1.6909,1.6906,1.688,1.6873,1.6893,1.6894,1.689,1.6862,1.6853,1.685,1.681,1.6841,1.6839,1.6838,1.6837,1.6741,1.674,0,0,0,0,0,0,1.6949,1.6943,1.6896,1.6894,1.6929,1.6907,1.6903,1.6892,1.6873,1.6871,1.6889,1.6891,1.6857,1.6853,1.6849,1.6807,1.6839,1.6837,1.6835,1.6742,1.6741,1.674,0,0,0,0,0,0,1.695,1.6944,1.6897,1.6919,1.6913,1.6905,1.6891,1.6891,1.6882,1.687,1.6869,1.6882,1.6858,1.6853,1.6823,1.6806,1.6836,1.6833,1.6744,1.6742,1.674,1.6723,0,0,0,0,0,0,1.6952,1.6945,1.6932,1.6918,1.6912,1.6872,1.689,1.6889,1.6878,1.688,1.6863,1.6861,1.6858,1.6826,1.6821,1.6804,1.6832,1.6745,1.6743,1.6741,1.6725,1.6721,1.6718,0,0,0,0,0,1.6954,1.6928,1.6932,1.6926,1.6896,1.6871,1.6867,1.6866,1.6877,1.6864,1.6856,1.6861,1.6809,1.6823,1.6817,1.6799,1.6746,1.6744,1.6741,1.6727,1.6722,1.6718,0,0,0,0,0,0,1.6938,1.6926,1.693,1.6898,1.6886,1.6873,1.6856,1.686,1.6844,1.6845,1.6843,1.6839,1.6809,1.6801,1.6817,1.6764,1.6779,1.6775,1.6771,1.6766,1.6762,1.6764,1.683,0,0,0,0,0,1.6932,1.6914,1.6903,1.6876,1.687,1.6864,1.6853,1.6854,1.684,1.6834,1.6825,1.681,1.6791,1.6778,1.6759,1.6724,1.672,1.6709,1.6705,1.6702,1.6698,1.6679,1.6674,1.6731,1.6731,1.6732,0,0,1.6916,1.6907,1.6896,1.6873,1.6863,1.6844,1.686,1.6838,1.6824,1.6831,1.6803,1.6795,1.6779,1.6747,1.6732,1.6739,1.6682,1.6699,1.6696,1.6694,1.6676,1.6671,1.6666,1.673,1.673,1.673,0,0,1.6879,1.6871,1.6848,1.6838,1.6824,1.6821,1.6815,1.6802,1.6797,1.6769,1.6774,1.6756,1.6723,1.6711,1.6701,1.666,1.6664,1.6654,1.6634,1.6616,1.6611,1.6607,1.6592,1.6587,1.6651,1.6651,1.6651,0,1.6862,1.6835,1.6835,1.6814,1.6803,1.6811,1.6787,1.6777,1.6757,1.6749,1.6757,1.6716,1.6705,1.667,1.6661,1.6652,1.6645,1.6656,1.6612,1.6608,1.6604,1.659,1.6585,1.6649,1.665,1.665,1.665,0,1.6814,1.6795,1.6778,1.676,1.6747,1.6725,1.6721,1.6708,1.671,1.6705,1.6676,1.6664,1.6643,1.6635,1.6635,1.66,1.6605,1.6613,1.6628,1.6597,1.6584,1.6579,1.6648,1.6648,1.6649,1.6649,0,0,1.6765,1.6749,1.6743,1.6735,1.672,1.6704,1.6682,1.6663,1.6652,1.6638,1.6619,1.6591,1.6598,1.6586,1.6585,1.6569,1.6538,1.6579,1.6578,1.6572,1.6498,1.6492,1.6486,1.6541,1.654,1.6539,1.65,0,1.6727,1.6689,1.6689,1.6654,1.6636,1.6643,1.6623,1.6611,1.6607,1.659,1.6584,1.6564,1.6575,1.6568,1.6553,1.6545,1.6523,1.6548,1.6522,1.6521,1.6526,1.6479,1.6473,1.6436,1.6494,1.6494,1.6493,0,1.6677,1.6663,1.6626,1.6615,1.6607,1.659,1.6573,1.6557,1.6543,1.6541,1.6529,1.653,1.6507,1.6523,1.649,1.6507,1.6496,1.6491,1.649,1.6487,1.6505,1.6475,1.6425,1.6419,1.6485,1.6485,1.6486,0,1.6645,1.6617,1.6591,1.6584,1.657,1.6558,1.6551,1.6539,1.6528,1.6513,1.6505,1.6487,1.6476,1.6462,1.6458,1.647,1.6425,1.6441,1.6422,1.6422,1.6412,1.6412,1.6359,1.6405,1.6405,1.6405,1.6405,0,1.6602,1.6579,1.6577,1.6561,1.6536,1.6536,1.651,1.6505,1.6494,1.6476,1.6481,1.6464,1.6461,1.6443,1.644,1.6413,1.6408,1.6405,1.6404,1.6405,1.6405,1.6397,1.64,1.6404,1.6404,1.6404,1.6405,0,1.6562,1.656,1.6532,1.6522,1.6519,1.65,1.6491,1.6475,1.6471,1.6449,1.6444,1.6437,1.6416,1.6412,1.6387,1.6385,1.6353,1.6355,1.6358,1.6358,1.6339,1.6341,1.6278,1.627,1.6322,1.6322,1.6321,0,1.6535,1.6518,1.6506,1.6495,1.6488,1.6471,1.646,1.6459,1.6447,1.6431,1.6418,1.6398,1.6382,1.6349,1.6341,1.6322,1.6323,1.6303,1.632,1.6321,1.6323,1.6324,1.6322,1.6299,1.6299,1.6298,1.6298,0,1.6486,1.6486,1.6471,1.6455,1.6443,1.643,1.6418,1.6408,1.6406,1.6393,1.6373,1.636,1.6336,1.6316,1.6297,1.6289,1.6293,1.6293,1.6287,1.6287,1.6289,1.6288,1.6349,1.6294,1.6294,1.6295,1.6295,1.6295,1.6452,1.6437,1.6427,1.6409,1.6401,1.6389,1.6375,1.6369,1.6353,1.6334,1.6334,1.6312,1.6299,1.6275,1.6266,1.6248,1.6254,1.6246,1.6244,1.6242,1.624,1.6293,1.6244,1.6244,1.6245,1.6245,1.6245,0,1.6403,1.6397,1.6382,1.6366,1.6352,1.6358,1.6345,1.6333,1.6314,1.6303,1.6288,1.6264,1.6245,1.6237,1.6218,1.6205,1.6206,1.62,1.6201,1.6199,1.6236,1.6243,1.6199,1.6199,1.6199,1.6199,1.6199,1.6199,1.6377,1.6352,1.6351,1.6322,1.6316,1.6296,1.6288,1.6277,1.6268,1.6243,1.6227,1.6222,1.6212,1.6192,1.6175,1.6172,1.6165,1.6158,1.6156,1.6191,1.6196,1.62,1.6207,1.6156,1.6156,1.6121,1.612,1.612]}]]